Temp
20 20 20 20 17 13 15 18 18 18 17 17 17 17 15 14 15 15 14 14 15 15 16 15 15 15 16 16 16 16 16 16 16 16 16 15 15 15 14 14 14 15 15 15 15 15 15 15 15
20 20 21 20 14 14 15 17 17 17 17 17 18 17 16 14 15 14 14 14 15 16 16 16 16 16 16 16 17 17 17 17 17 17 17 15 14 14 14 14 14 14 15 15 15 14 14 14 14
20 21 20 12 11 14 16 18 16 16 17 18 17 16 16 15 15 15 15 15 15 16 16 16 17 17 17 17 18 17 17 17 17 17 16 15 15 14 14 13 13 14 14 14 14 14 14 14 13
21 21 19 15 16 17 18 17 17 17 17 18 17 15 16 15 16 16 16 16 16 16 17 17 17 17 18 18 18 18 18 18 17 17 16 15 15 14 14 14 14 14 14 13 13 13 13 13 13
21 20 13 14 17 18 17 18 18 16 17 17 17 15 16 16 16 16 16 17 17 18 17 17 17 18 18 18 18 17 17 16 16 16 16 16 15 15 15 15 14 14 14 14 13 13 13 13 13
20 18 13 14 17 18 19 18 18 17 17 17 17 16 16 16 17 16 16 16 17 17 18 18 17 17 16 16 16 15 15 15 15 15 15 14 14 15 15 15 15 14 14 14 13 13 13 13 13
16 12 14 16 17 19 19 19 18 18 18 17 18 15 16 16 16 16 16 16 16 17 17 17 17 16 16 16 16 15 14 14 14 14 14 14 14 14 14 14 14 14 14 14 13 13 13 13 13
20 13 15 16 16 18 18 20 20 20 18 18 19 14 16 17 16 16 16 16 17 17 16 16 16 16 17 16 16 15 14 14 14 14 14 14 14 14 14 14 15 14 14 14 13 13 13 13 12
19 12 14 17 18 19 18 19 19 20 19 19 19 19 19 18 16 16 15 16 16 16 16 16 16 16 17 16 16 15 14 14 14 14 14 14 14 14 14 14 14 14 14 14 14 14 13 13 12
15 12 17 17 17 18 18 19 19 19 19 19 19 20 19 17 16 16 16 16 16 16 16 16 16 16 16 16 16 15 15 14 14 14 14 14 14 14 14 14 14 14 14 14 13 13 13 13 12
17 16 17 19 19 19 18 19 20 18 17 19 20 19 18 17 16 16 16 17 17 17 16 16 16 16 16 16 15 15 15 14 14 13 13 13 13 13 13 14 13 13 13 13 13 13 13 12 12
18 18 18 19 20 19 18 19 19 19 21 21 21 20 19 18 17 17 16 17 17 17 16 16 16 16 16 16 15 15 15 14 13 13 13 13 13 13 13 13 13 13 13 13 13 12 12 12 11
19 19 19 20 20 20 19 19 19 19 21 21 20 19 19 19 18 17 17 17 17 17 17 16 17 17 16 15 15 15 14 14 13 13 12 12 12 12 12 12 12 12 12 12 12 12 11 11 11
19 19 19 19 19 20 19 19 19 21 21 20 20 20 19 19 19 18 18 18 17 17 17 16 16 16 16 15 14 14 14 13 13 13 12 11 11 11 11 11 11 11 11 11 11 11 10 11 11
19 18 16 18 17 18 19 17 17 20 20 20 19 19 19 19 19 18 18 18 18 18 17 16 16 15 15 15 14 14 14 13 13 12 12 11 11 11 11 11 11 11 10 10 10 10 10 10 10
15 14 15 17 17 18 18 15 17 20 19 20 19 19 19 19 18 18 18 18 18 18 17 16 16 15 15 15 14 14 13 13 13 13 12 12 11 11 11 11 10 10 10 10 10 9 9 9 9
12 15 16 15 15 15 18 15 17 19 18 19 18 18 18 18 18 18 18 18 18 17 16 16 16 15 15 15 14 14 14 13 13 13 12 12 12 11 11 11 10 10 10 10 9 9 9 9 9
15 15 15 16 15 14 14 13 13 15 16 16 17 17 17 17 18 18 18 18 17 17 16 16 15 15 15 14 14 14 13 13 13 12 12 12 12 12 11 11 11 10 10 10 9 9 9 9 8
16 15 15 14 15 14 13 12 12 14 14 15 15 15 16 17 18 18 19 18 17 16 16 16 15 15 15 14 14 13 13 12 12 12 12 12 12 11 11 11 11 10 10 10 9 9 9 8 8
16 15 14 14 14 14 13 13 13 13 13 13 14 15 17 18 18 18 18 18 17 16 16 16 15 15 14 14 13 13 12 12 12 12 12 12 11 11 11 10 11 11 10 10 9 9 9 9 8
14 15 15 14 13 14 12 14 13 15 15 15 15 16 17 18 18 17 17 17 16 16 16 15 15 14 14 13 13 12 12 12 12 11 11 11 11 10 10 10 9 10 10 10 9 9 9 8 8
14 15 14 13 13 13 12 13 13 12 15 13 14 16 17 17 17 17 17 17 16 16 15 15 14 14 13 12 12 12 11 11 11 11 10 10 10 10 10 10 9 9 8 9 9 8 8 7 6
14 13 13 13 12 12 12 11 13 12 15 14 14 16 16 16 16 16 16 16 15 15 14 14 13 12 12 12 11 11 11 10 10 10 10 9 9 9 9 9 9 9 8 7 7 6 6 5 4
13 12 11 10 10 10 12 12 11 12 13 13 14 15 15 15 15 15 14 14 14 13 12 12 12 12 12 11 11 11 10 9 9 9 9 9 8 8 8 8 8 8 7 4 3 4 4 3 3
11 10 8 9 8 10 11 11 12 13 13 14 15 16 15 14 14 13 13 13 12 12 11 11 11 11 10 10 10 10 9 9 8 8 8 7 7 6 6 6 6 6 4 2 2 1 1 0 -0
13 10 7 11 7 8 10 12 13 14 13 14 15 14 14 14 13 12 11 11 11 11 10 10 10 10 9 9 8 8 7 6 6 6 6 6 5 5 5 5 4 3 1 0 -1 -1 -1 -1 -1
13 9 10 7 1 5 8 11 12 11 10 11 12 12 11 11 11 11 11 11 11 10 10 10 9 9 8 7 7 6 6 6 6 6 5 5 5 4 4 2 1 -0 -0 -1 -0 -1 -1 -1 -3
12 11 9 6 6 8 9 9 10 10 10 9 9 10 10 11 11 11 11 10 10 9 9 8 8 8 7 7 6 6 5 4 4 4 4 3 3 3 1 0 1 1 1 0 -0 -1 -1 -2 -2
10 9 9 9 7 6 6 8 9 10 9 9 9 9 10 10 10 10 9 9 9 8 8 7 7 7 7 6 5 4 4 4 4 3 2 2 1 0 1 0 -1 -1 -0 -1 -1 -2 -2 -2 -2
11 11 9 5 8 5 4 8 10 9 10 10 9 9 9 9 9 9 9 8 8 7 7 7 6 6 5 5 4 4 3 3 2 2 1 -0 -0 -0 -1 -2 -2 -2 -2 -1 -1 -2 -2 -2 -3
Height
1507 1507 1508 1509 1518 1526 1539 1531 1524 1524 1525 1525 1525 1525 1530 1533 1536 1546 1542 1542 1545 1545 1544 1545 1547 1545 1545 1549 1548 1550 1548 1550 1552 1552 1551 1551 1552 1552 1555 1552 1552 1552 1552 1552 1553 1552 1552 1552 1554
1507 1507 1509 1510 1530 1543 1540 1527 1526 1524 1526 1527 1527 1528 1530 1538 1537 1539 1541 1542 1544 1545 1546 1545 1547 1546 1546 1549 1549 1549 1550 1550 1552 1551 1551 1551 1552 1552 1551 1552 1551 1552 1552 1553 1552 1551 1551 1552 1553
1506 1507 1510 1518 1538 1543 1537 1526 1526 1527 1528 1528 1530 1533 1534 1539 1539 1539 1539 1540 1542 1545 1546 1548 1548 1548 1551 1551 1550 1550 1550 1551 1551 1551 1552 1551 1551 1550 1551 1550 1551 1552 1551 1551 1551 1550 1550 1550 1551
1507 1508 1513 1524 1532 1527 1525 1525 1527 1529 1529 1528 1530 1534 1537 1539 1538 1541 1540 1542 1542 1544 1548 1551 1550 1550 1551 1551 1550 1552 1552 1550 1550 1550 1552 1550 1550 1550 1551 1550 1550 1549 1550 1550 1548 1549 1549 1549 1548
1506 1509 1525 1535 1531 1527 1525 1524 1526 1528 1528 1529 1530 1536 1538 1538 1539 1541 1542 1542 1543 1544 1548 1549 1550 1551 1552 1553 1553 1551 1552 1550 1550 1551 1550 1550 1549 1549 1549 1549 1549 1548 1547 1547 1546 1546 1546 1546 1545
1506 1513 1538 1544 1533 1527 1527 1527 1527 1526 1528 1530 1533 1533 1538 1539 1541 1542 1544 1545 1547 1548 1549 1550 1552 1552 1553 1553 1551 1552 1550 1550 1550 1550 1549 1549 1549 1548 1547 1547 1547 1546 1545 1545 1545 1545 1545 1544 1543
1507 1521 1538 1536 1535 1529 1527 1528 1527 1527 1527 1531 1531 1536 1538 1539 1541 1544 1545 1545 1547 1549 1550 1551 1553 1552 1553 1552 1551 1550 1549 1549 1550 1550 1550 1550 1549 1548 1547 1546 1545 1544 1543 1543 1542 1543 1543 1542 1542
1508 1517 1532 1534 1537 1533 1529 1528 1527 1527 1530 1532 1532 1535 1538 1538 1540 1546 1544 1548 1548 1549 1550 1552 1552 1553 1552 1551 1550 1549 1548 1549 1549 1549 1550 1550 1549 1548 1547 1547 1546 1545 1544 1543 1542 1541 1540 1539 1539
1509 1528 1540 1533 1531 1529 1526 1529 1529 1529 1530 1531 1531 1530 1531 1534 1536 1544 1545 1546 1548 1548 1550 1550 1551 1551 1551 1551 1549 1549 1549 1549 1549 1549 1549 1548 1548 1548 1547 1546 1545 1544 1543 1542 1541 1540 1538 1537 1537
1511 1532 1529 1529 1528 1529 1527 1527 1530 1530 1531 1531 1530 1531 1533 1535 1537 1540 1542 1544 1545 1546 1548 1549 1550 1551 1550 1550 1549 1548 1549 1549 1548 1548 1548 1548 1547 1547 1546 1546 1544 1543 1542 1540 1539 1537 1536 1535 1534
1515 1528 1526 1525 1527 1528 1531 1530 1529 1529 1533 1529 1527 1530 1531 1535 1536 1538 1541 1543 1545 1546 1547 1548 1549 1549 1548 1548 1547 1547 1547 1547 1547 1547 1547 1547 1546 1545 1545 1544 1543 1541 1540 1538 1537 1535 1533 1533 1532
1521 1522 1525 1526 1529 1529 1531 1530 1528 1531 1527 1527 1527 1528 1529 1533 1534 1537 1540 1541 1543 1544 1545 1547 1547 1548 1548 1547 1547 1546 1546 1545 1545 1546 1545 1545 1544 1543 1543 1541 1540 1539 1537 1536 1535 1533 1531 1530 1529
1520 1524 1526 1526 1528 1527 1528 1528 1529 1528 1527 1526 1526 1527 1530 1532 1534 1535 1537 1540 1541 1542 1543 1545 1546 1547 1546 1546 1545 1545 1544 1544 1543 1543 1543 1543 1543 1542 1541 1540 1538 1536 1535 1533 1532 1531 1529 1528 1527
1519 1522 1522 1526 1526 1525 1528 1527 1527 1525 1524 1524 1524 1526 1529 1531 1532 1534 1536 1538 1539 1540 1541 1543 1544 1544 1545 1545 1545 1543 1542 1542 1541 1541 1541 1540 1540 1539 1537 1536 1535 1533 1532 1530 1529 1528 1527 1526 1525
1519 1524 1523 1524 1524 1526 1527 1527 1525 1524 1523 1523 1523 1525 1527 1529 1532 1533 1535 1536 1537 1539 1541 1542 1543 1544 1545 1544 1543 1541 1541 1540 1539 1539 1538 1538 1537 1536 1535 1533 1531 1530 1528 1526 1526 1525 1524 1523 1522
1528 1532 1542 1529 1527 1528 1529 1537 1522 1523 1522 1520 1521 1522 1525 1528 1530 1532 1534 1535 1537 1538 1540 1543 1544 1544 1544 1543 1542 1541 1540 1539 1538 1536 1535 1534 1532 1531 1530 1528 1527 1526 1524 1522 1521 1520 1520 1520 1519
1541 1548 1543 1537 1530 1531 1531 1535 1522 1521 1520 1516 1518 1520 1524 1527 1529 1531 1532 1533 1535 1538 1540 1542 1543 1543 1542 1542 1541 1540 1538 1537 1535 1534 1532 1531 1529 1527 1525 1523 1521 1520 1519 1517 1516 1515 1515 1514 1514
1546 1545 1541 1540 1533 1532 1534 1533 1523 1518 1516 1515 1515 1516 1522 1527 1530 1531 1531 1531 1533 1536 1538 1540 1542 1541 1540 1540 1539 1538 1536 1534 1532 1530 1529 1527 1525 1523 1520 1518 1517 1516 1515 1513 1511 1510 1509 1509 1509
1538 1541 1543 1539 1534 1536 1535 1534 1525 1517 1515 1514 1516 1519 1523 1528 1529 1529 1529 1530 1531 1534 1537 1539 1539 1539 1538 1538 1537 1536 1535 1533 1530 1528 1526 1524 1522 1519 1516 1513 1511 1510 1509 1508 1507 1506 1505 1504 1504
1537 1541 1546 1539 1535 1536 1534 1532 1525 1521 1521 1520 1521 1523 1525 1527 1529 1529 1530 1532 1532 1533 1535 1537 1537 1537 1537 1535 1534 1532 1531 1529 1527 1525 1523 1521 1517 1514 1510 1507 1505 1503 1501 1501 1500 1499 1497 1498 1498
1541 1541 1542 1545 1539 1535 1537 1534 1531 1526 1525 1524 1525 1526 1527 1528 1530 1531 1531 1532 1532 1533 1535 1535 1535 1534 1533 1532 1531 1529 1527 1525 1522 1520 1517 1515 1511 1507 1503 1499 1496 1495 1494 1491 1491 1491 1490 1490 1490
1546 1537 1539 1542 1544 1550 1540 1552 1537 1535 1529 1529 1529 1529 1529 1530 1530 1531 1531 1532 1533 1533 1533 1532 1532 1530 1529 1528 1527 1525 1522 1519 1517 1512 1508 1505 1502 1498 1495 1490 1487 1485 1485 1483 1482 1482 1482 1483 1483
1543 1537 1538 1537 1543 1546 1548 1555 1544 1536 1532 1532 1530 1530 1531 1530 1531 1532 1531 1531 1531 1530 1530 1529 1528 1527 1526 1525 1523 1520 1517 1513 1509 1505 1501 1497 1493 1490 1486 1483 1479 1475 1473 1472 1473 1473 1473 1472 1476
1537 1538 1540 1545 1548 1562 1552 1555 1553 1544 1538 1535 1534 1533 1532 1532 1533 1533 1532 1530 1530 1529 1529 1528 1527 1525 1524 1522 1520 1515 1510 1506 1501 1497 1493 1489 1485 1480 1476 1473 1469 1466 1463 1463 1462 1462 1462 1465 1465
1541 1549 1569 1569 1575 1571 1552 1556 1550 1539 1536 1535 1534 1534 1533 1533 1532 1531 1530 1529 1529 1529 1528 1526 1525 1524 1521 1518 1513 1510 1505 1501 1496 1490 1484 1480 1476 1472 1467 1463 1459 1457 1456 1456 1456 1456 1456 1456 1458
1548 1554 1578 1574 1590 1578 1555 1554 1547 1538 1538 1538 1535 1534 1533 1531 1530 1529 1529 1529 1529 1528 1527 1525 1522 1520 1517 1514 1509 1505 1501 1496 1490 1484 1479 1475 1470 1466 1462 1459 1455 1454 1453 1454 1454 1455 1456 1454 1452
1549 1563 1558 1577 1602 1592 1565 1550 1540 1538 1540 1539 1536 1533 1533 1532 1532 1531 1531 1530 1529 1527 1525 1522 1519 1515 1511 1507 1503 1499 1495 1488 1482 1478 1472 1468 1465 1462 1457 1457 1456 1456 1455 1454 1452 1450 1449 1447 1447
1550 1555 1568 1577 1592 1584 1566 1559 1551 1546 1545 1541 1539 1537 1536 1535 1534 1534 1533 1531 1528 1525 1522 1519 1514 1508 1505 1500 1496 1492 1488 1482 1474 1469 1465 1463 1462 1459 1457 1458 1458 1457 1454 1451 1450 1450 1449 1447 1449
1559 1564 1566 1569 1580 1592 1587 1567 1544 1544 1543 1540 1539 1539 1538 1537 1535 1533 1531 1527 1524 1520 1517 1513 1508 1504 1499 1495 1491 1487 1481 1473 1467 1460 1458 1459 1459 1460 1458 1456 1455 1454 1452 1450 1449 1449 1449 1448 1448
1556 1561 1566 1585 1582 1588 1596 1564 1539 1538 1539 1538 1538 1537 1537 1535 1532 1529 1526 1523 1520 1516 1511 1507 1503 1500 1496 1491 1487 1481 1474 1468 1460 1455 1455 1458 1459 1457 1455 1453 1453 1451 1450 1449 1447 1446 1445 1443 1442
Wind_Speed
3 2 1 0 4 5 2 1 2 2 3 2 6 8 8 7 3 3 10 6 4 6 8 9 7 8 8 5 6 5 3 0 1 1 3 3 4 5 10 12 12 12 11 9 9 14 15 11 14
3 2 1 2 5 5 3 4 4 2 9 12 10 8 9 4 5 11 11 10 7 8 8 9 8 10 9 8 7 5 3 1 0 2 3 5 7 9 11 12 11 11 14 17 19 20 17 8 10
4 3 1 5 4 4 3 2 4 5 9 5 4 7 4 4 7 10 13 12 10 9 10 10 12 12 10 9 9 6 4 2 1 2 2 3 8 10 11 13 14 14 18 17 18 18 9 8 10
3 3 7 6 4 3 3 4 8 6 3 4 8 6 6 5 4 10 15 12 11 12 13 13 12 11 9 9 8 6 3 1 1 0 1 3 5 7 8 7 9 10 12 11 10 10 10 9 10
4 4 5 5 4 3 3 6 11 6 6 4 4 3 4 6 14 15 15 14 13 14 13 13 11 10 9 7 5 2 1 1 1 2 3 5 6 5 5 5 6 7 7 7 8 8 8 9 10
4 4 5 4 1 2 3 5 4 4 8 11 11 6 5 14 15 17 14 15 11 8 9 9 8 7 4 4 5 4 3 3 3 3 3 4 4 5 4 5 6 7 7 8 9 9 7 9 11
7 5 4 4 2 2 1 3 3 4 4 3 9 4 8 16 14 14 13 12 9 5 3 4 4 4 7 10 9 9 7 5 5 6 5 5 5 5 6 6 5 6 6 8 9 9 9 9 10
5 5 3 3 2 2 3 2 4 4 3 10 7 6 6 20 16 14 12 9 7 5 5 4 4 5 9 12 12 10 8 5 4 5 6 6 7 7 7 8 8 7 7 8 9 11 10 10 11
5 5 2 2 3 2 2 2 2 3 6 3 3 8 6 22 21 18 17 14 11 7 5 2 2 5 9 11 11 8 7 4 5 6 7 8 8 7 8 8 8 9 11 11 10 10 12 12 10
6 5 3 3 3 0 3 2 3 2 2 1 3 4 15 23 22 20 19 17 11 8 4 1 2 2 7 8 8 7 7 6 5 7 7 9 10 9 10 10 10 12 13 14 14 14 12 13 13
3 4 3 2 2 1 2 2 1 10 2 9 11 13 20 22 19 18 18 12 5 6 7 6 4 5 8 9 8 6 6 6 6 7 8 10 12 12 12 13 13 15 15 15 16 18 17 15 13
6 4 3 2 3 3 2 2 2 8 6 7 9 14 20 21 17 16 16 12 11 10 10 10 7 5 10 11 12 10 9 8 8 9 11 11 11 13 15 15 16 17 17 17 18 18 19 19 17
4 2 4 3 5 4 3 3 4 13 9 7 10 16 21 18 15 14 16 15 15 15 12 12 7 5 7 8 11 11 10 11 12 13 13 14 15 16 18 19 20 20 20 19 19 19 18 19 19
2 2 3 2 2 2 2 3 3 4 4 11 13 18 21 18 15 17 16 17 16 16 15 14 9 5 6 8 11 10 11 12 14 16 16 16 17 18 19 20 20 20 21 22 22 20 19 17 18
4 4 6 9 5 2 1 5 6 9 7 8 16 20 22 18 17 17 16 17 15 13 16 15 9 6 5 10 10 10 11 13 15 15 15 16 18 19 19 20 21 21 22 23 22 21 20 19 17
6 6 5 6 4 5 3 8 13 8 6 17 14 20 24 21 19 18 16 16 14 15 18 15 10 6 7 8 9 10 11 13 15 16 17 17 18 18 19 21 21 19 20 21 22 22 21 19 18
7 1 2 7 6 5 3 8 12 13 20 23 12 20 24 23 20 16 16 14 14 18 17 14 9 4 7 8 7 9 11 12 13 17 19 21 22 21 22 22 21 20 20 20 21 22 22 21 20
2 2 3 2 5 7 5 7 9 19 12 16 10 11 22 18 13 13 12 13 14 17 15 12 6 6 6 3 5 6 9 10 12 15 18 21 24 26 27 27 26 25 24 23 24 24 23 23 23
1 1 3 3 2 5 3 6 9 15 10 6 1 8 10 9 6 3 3 2 5 10 11 7 5 5 5 6 9 11 14 15 17 20 22 24 27 31 33 34 33 31 31 28 26 25 27 28 27
3 2 4 5 3 0 5 8 6 11 7 8 11 14 15 14 11 10 9 7 6 4 5 6 7 8 8 10 13 16 19 21 22 24 26 29 31 32 34 38 39 39 37 36 33 33 33 32 32
4 2 3 5 6 1 6 4 6 4 11 13 11 10 12 11 9 7 6 3 2 3 4 7 9 12 13 15 18 20 21 22 27 28 26 27 32 33 35 34 39 43 44 43 41 40 39 38 37
3 2 2 5 2 1 4 2 5 6 3 7 5 6 8 7 6 5 1 4 6 7 10 11 13 15 16 16 15 17 23 30 33 34 36 36 31 29 30 31 31 36 44 49 48 45 42 39 37
7 4 2 1 3 3 8 4 6 6 4 2 2 7 5 6 5 3 7 9 11 12 12 11 9 8 8 11 17 24 28 33 35 34 33 31 32 33 33 33 33 32 34 44 49 44 40 37 34
6 4 5 4 2 3 3 3 5 3 4 4 4 1 4 5 4 6 7 6 6 3 2 3 5 9 14 20 26 31 32 32 33 34 35 37 37 36 36 34 34 35 33 33 28 36 31 25 26
9 6 3 5 5 3 3 1 5 6 4 2 1 8 9 7 9 7 6 4 1 3 6 11 17 23 27 29 29 29 28 30 32 35 37 37 36 36 35 32 27 26 24 22 23 23 23 19 19
3 4 4 2 1 4 5 3 3 3 15 22 20 17 12 9 8 5 5 5 6 11 17 22 26 29 30 28 27 26 27 31 35 37 37 33 31 32 31 26 19 16 18 18 12 10 11 16 17
2 4 2 5 2 3 3 5 5 3 8 16 13 9 8 8 8 8 8 9 15 21 24 26 26 26 26 26 27 30 34 38 41 41 34 27 27 29 22 13 11 5 7 16 20 25 30 24 22
6 4 4 3 2 3 5 5 4 6 8 7 7 8 9 7 9 12 16 19 19 20 24 24 24 24 24 29 30 34 39 42 42 40 26 22 25 20 9 5 9 17 23 24 24 12 13 15 13
4 3 5 4 3 3 3 6 5 4 4 5 4 8 11 9 12 18 20 19 20 23 24 25 26 29 29 31 33 38 42 43 42 28 18 17 13 6 5 15 18 17 14 10 11 13 13 17 20
2 3 4 4 3 1 3 6 4 7 1 4 1 8 13 14 19 23 25 26 24 28 27 25 28 31 32 33 36 41 42 39 27 18 9 6 6 5 11 10 8 10 15 18 19 20 22 25 26
Wind_Direction
128 141 192 162 61 66 26 69 245 26 47 1 83 84 100 59 68 163 139 149 146 142 135 132 133 113 105 126 126 151 168 201 131 170 230 228 221 202 211 220 227 234 226 227 258 294 305 294 270
120 125 110 116 82 76 312 282 119 158 116 94 60 56 46 51 64 131 146 143 125 105 99 105 112 98 92 92 96 91 91 115 276 272 244 219 214 209 218 225 227 229 248 265 277 296 302 293 267
109 118 53 88 107 129 143 325 69 92 133 18 101 70 92 95 122 143 143 135 125 103 99 100 93 89 88 74 64 62 71 70 349 324 293 225 224 230 240 250 254 269 279 289 283 288 286 286 243
146 115 75 76 69 26 115 139 136 128 116 86 113 62 76 105 94 135 128 127 126 120 113 106 100 91 77 67 61 49 35 42 198 27 264 263 245 247 252 265 277 275 276 281 276 264 286 271 267
80 69 60 66 20 358 22 157 162 161 135 120 145 100 83 113 130 132 123 123 134 130 123 111 94 77 63 48 37 23 260 244 264 303 313 301 296 290 287 276 270 275 288 297 296 287 283 279 261
72 73 63 102 161 337 33 93 114 92 109 111 106 109 111 135 132 125 122 122 131 117 103 100 100 70 65 51 26 3 334 302 306 303 297 296 293 290 292 293 295 293 290 288 281 286 284 279 277
105 79 140 126 133 65 323 339 85 121 102 94 125 101 152 164 148 131 125 121 121 116 118 106 105 63 28 13 10 11 8 348 317 304 299 288 283 278 288 282 281 282 283 284 284 286 287 287 291
92 90 80 24 65 59 313 79 113 88 82 128 146 168 174 172 156 160 149 147 143 162 142 117 54 28 12 8 4 9 23 18 7 326 292 283 281 282 281 286 303 316 316 306 297 291 286 288 291
91 64 80 139 123 249 6 99 90 93 148 142 159 162 155 171 172 178 177 178 185 188 175 133 19 14 3 4 357 2 10 5 337 314 302 289 285 275 284 285 297 310 311 311 302 295 297 295 285
80 88 168 182 167 121 28 86 121 117 92 95 140 155 160 177 183 191 191 196 199 211 206 227 273 338 353 1 356 346 354 350 335 325 301 290 288 280 283 288 292 301 306 305 302 303 300 300 298
72 129 193 35 80 168 308 333 143 135 229 195 185 176 172 183 190 202 203 215 236 234 235 246 264 324 353 358 343 327 326 329 327 324 315 298 287 283 286 292 294 296 295 295 295 298 300 301 302
86 105 140 181 182 158 238 301 278 216 226 207 202 185 181 190 199 208 211 226 224 238 247 237 252 317 357 0 349 318 310 312 313 310 311 304 290 285 285 288 291 291 290 292 291 289 288 291 294
80 135 180 177 180 214 226 247 268 265 258 232 215 188 193 197 205 218 230 238 229 234 237 231 251 314 335 342 347 318 310 310 309 308 306 304 299 293 291 290 292 290 289 291 290 288 285 288 293
9 354 326 345 219 237 220 278 355 303 268 248 219 200 199 202 199 214 225 230 237 237 233 226 238 277 310 331 338 328 320 315 316 313 308 301 298 297 296 295 294 293 293 292 291 291 288 286 287
48 31 17 17 334 308 294 323 234 257 309 281 230 212 203 210 207 217 229 241 245 251 224 225 241 264 305 329 337 336 327 326 324 319 308 303 301 300 299 301 302 301 299 293 289 288 288 287 285
45 45 28 329 16 39 61 275 287 284 294 309 257 222 211 213 218 233 245 244 249 239 222 227 240 270 321 333 335 341 341 341 336 332 322 314 309 301 296 298 298 294 298 290 286 286 285 283 283
11 76 338 321 58 15 52 275 278 312 304 292 285 232 216 217 223 235 242 252 243 226 224 231 242 297 314 329 343 353 355 350 347 343 331 322 316 310 301 300 296 288 291 284 280 276 275 276 278
299 344 311 281 323 5 321 276 290 321 290 295 296 228 207 210 222 242 254 254 235 225 232 223 241 292 304 304 327 327 324 331 333 337 329 319 312 306 300 298 295 287 283 282 280 278 273 272 274
179 227 288 259 275 349 315 291 312 353 40 22 62 152 171 163 140 101 10 23 227 218 209 215 264 275 285 289 307 310 313 315 322 326 320 316 313 309 300 294 290 283 277 279 278 277 273 272 273
26 4 305 296 284 37 345 318 320 10 26 49 99 117 121 115 106 90 87 87 107 149 203 253 266 273 287 285 291 293 302 307 313 315 313 308 308 308 301 294 290 284 278 276 272 269 269 269 269
329 206 246 241 327 45 332 355 360 3 60 76 84 106 116 110 104 109 119 106 194 235 258 253 258 264 268 274 280 289 297 301 309 310 305 301 300 299 297 293 281 277 274 271 270 268 268 266 263
310 176 273 272 63 224 22 256 343 337 31 49 73 128 143 146 159 163 204 263 258 248 247 255 262 269 274 285 297 308 312 312 314 313 312 311 309 302 299 300 294 279 272 269 267 263 257 252 250
245 339 272 244 139 88 351 70 294 352 5 21 198 190 190 199 199 220 243 245 249 250 251 265 278 289 299 308 311 309 307 308 310 314 312 308 308 308 304 299 296 292 279 271 266 257 250 242 240
294 35 43 47 79 46 325 102 303 318 300 330 9 274 257 245 244 266 247 234 249 265 283 311 306 309 309 309 307 309 314 316 315 315 314 313 312 308 306 303 297 289 278 270 247 241 231 218 217
22 41 357 6 12 211 291 44 227 313 9 345 49 357 326 300 292 275 266 286 313 351 346 335 328 321 318 317 317 316 316 317 317 318 316 313 312 311 310 309 300 288 265 221 207 201 206 218 227
9 94 130 193 312 279 311 200 200 16 54 21 354 346 330 325 337 13 59 44 8 348 339 331 326 320 319 320 317 317 319 322 323 325 323 313 310 310 313 310 292 248 211 200 213 231 280 310 311
326 45 159 105 14 38 278 316 290 152 24 359 342 346 32 47 49 35 20 357 341 330 326 322 320 322 321 324 324 323 324 325 323 321 321 304 305 305 301 270 215 226 279 281 287 306 323 330 337
94 138 33 11 53 312 307 292 246 28 342 346 20 34 25 27 19 1 340 328 318 321 322 322 322 324 327 328 327 326 325 325 324 324 313 302 299 289 261 253 300 309 307 302 308 317 322 323 318
2 26 56 105 110 176 294 268 205 161 330 333 39 13 3 352 339 329 322 310 308 315 320 325 332 332 331 330 328 326 326 329 326 318 311 288 274 221 281 308 296 308 309 328 316 308 301 297 295
95 115 100 109 301 219 164 268 303 128 227 118 293 343 343 333 327 324 318 309 312 326 326 328 332 332 331 330 325 323 325 324 324 321 285 219 229 280 309 299 299 316 325 318 311 306 303 301 300